Weather History for KNKT - March, 2013

Change the Weather History Date:

Sunday, March 10, 2013

  Actual Average Record
Temperature  
Mean Temperature 46 °F -  
Max Temperature 61 °F 60 °F 77 °F (1997)
Min Temperature 30 °F 40 °F 30 °F (2008)
Degree Days  
Heating Degree Days 20    
Moisture  
Dew Point 35 °F    
Average Humidity 69    
Maximum Humidity 93    
Minimum Humidity 26    
Precipitation  
Precipitation 0.00 in - - ()
Sea Level Pressure  
Sea Level Pressure 30.28 in    
Wind  
Wind Speed 3 mph ()    
Max Wind Speed 12 mph    
Max Gust Speed 20 mph    
Visibility 9.7 miles    
Events Fog    
Averages and records for this station are not official NWS values.
T = Trace of Precipitation, MM = Missing Value Source: Averaged Metar Reports

Daily Weather History Graph

Daily Weather History Graph

Search for Another Location

Airport or City:

Trip Planner

Search our weather history database for the weather conditions in past years. The results will help you decide how hot, cold, wet, or windy it might be!

Date:

Astronomy

Mar. 10, 2013 Rise Set
Actual Time 7:24 AM EDT 7:11 PM EDT
Civil Twilight 6:59 AM EDT 7:36 PM EDT
Nautical Twilight 6:30 AM EDT 8:05 PM EDT
Astronomical Twilight 6:00 AM EDT 8:35 PM EDT
Moon 6:21 AM EDT (3/10) 6:17 PM EDT (3/10)
Length of Visible Light 12h 36m
Length of Day
11h 46m
Waning Crescent, 2% of the Moon is Illuminated
Mar 10
Waning Crescent
Mar 11
New
Mar 19
First Quarter
Mar 27
Full
Apr 3
Last Quarter

Hourly Weather History & Observations

Time (EDT) Temp. Windchill Dew Point Humidity Pressure Visibility Wind Dir Wind Speed Gust Speed Precip Events Conditions
12:54 AM 36.0 °F - 32.0 °F 86% 30.30 in 10.0 mi Calm Calm - N/A   Clear
1:54 AM 36.0 °F - 32.0 °F 86% 30.30 in 10.0 mi Calm Calm - N/A   Clear
3:54 AM 34.0 °F - 30.0 °F 85% 30.28 in 10.0 mi Calm Calm - N/A   Clear
4:54 AM 32.0 °F - 28.0 °F 85% 30.27 in 10.0 mi Calm Calm - N/A   Clear
5:54 AM 34.0 °F - 30.0 °F 85% 30.27 in 10.0 mi Calm Calm - N/A   Clear
6:54 AM 30.0 °F - 27.0 °F 88% 30.29 in 8.0 mi Calm Calm - N/A   Clear
7:54 AM 32.0 °F - 28.9 °F 88% 30.29 in 7.0 mi Calm Calm - N/A Fog Shallow Fog
8:54 AM 44.1 °F 42.5 °F 34.0 °F 68% 30.31 in 10.0 mi North 3.5 mph - N/A   Clear
9:54 AM 48.9 °F - 34.0 °F 56% 30.31 in 10.0 mi NE 8.1 mph - N/A   Clear
10:54 AM 53.1 °F - 36.0 °F 52% 30.31 in 10.0 mi NE 9.2 mph - N/A   Clear
11:54 AM 57.0 °F - 32.0 °F 39% 30.32 in 10.0 mi ENE 5.8 mph - N/A   Clear
12:54 PM 60.1 °F - 28.0 °F 30% 30.32 in 10.0 mi NE 11.5 mph - N/A   Partly Cloudy
2:54 PM 60.1 °F - 25.0 °F 26% 30.26 in 10.0 mi NE 11.5 mph 19.6 mph N/A   Partly Cloudy
3:54 PM 61.0 °F - 34.0 °F 36% 30.27 in 10.0 mi NE 11.5 mph - N/A   Clear
4:54 PM 60.1 °F - 36.0 °F 41% 30.26 in 10.0 mi ENE 8.1 mph - N/A   Scattered Clouds
5:54 PM 59.0 °F - 39.0 °F 48% 30.26 in 10.0 mi NE 6.9 mph - N/A   Clear
6:54 PM 53.1 °F - 42.1 °F 66% 30.27 in 10.0 mi ENE 6.9 mph - N/A   Partly Cloudy
7:54 PM 48.9 °F - 43.0 °F 80% 30.27 in 10.0 mi ENE 5.8 mph - N/A   Partly Cloudy
8:54 PM 48.0 °F - 43.0 °F 83% 30.28 in 10.0 mi East 3.5 mph - N/A   Partly Cloudy
9:54 PM 45.0 °F 42.6 °F 41.0 °F 86% 30.28 in 10.0 mi East 4.6 mph - N/A   Partly Cloudy
10:54 PM 45.0 °F 42.6 °F 41.0 °F 86% 30.28 in 9.0 mi ESE 4.6 mph - N/A   Partly Cloudy
11:54 PM 46.0 °F - 42.1 °F 86% 30.28 in 9.0 mi Calm Calm - N/A   Partly Cloudy
12:54 AM 43.0 °F - 41.0 °F 93% 30.26 in 9.0 mi Calm Calm - N/A   Partly Cloudy